Tracking 30923 objects as of 1-Jul-2025
HD Live streaming from Space Station
objects crossing your sky now

INTELSAT 2-F2 DEB *

Track INTELSAT 2-F2 DEB * now!


NORAD ID: 5987
Int'l Code: 1967-001S
Perigee: 469.9 km
Apogee: 28,433.4 km
Inclination: 26.5 °
Period: 498.4 minutes
Semi major axis: 20822 km
RCS: 0.3047 m2 (medium)
Launch date: January 11, 1967
Source: United States (US)
Launch site: AIR FORCE EASTERN TEST RANGE (AFETR)

Note: This is SATELLITE DEBRIS
Your satellite tracking list
ARIANE 2 DEB
Track 1 satellite(s)




NASA's NSSDC Master Catalog

Two Line Element Set (TLE):
1 05987U 67001S   25180.66037675 -.00000013  00000-0  37266-3 0  9991
2 05987  26.5335 305.7929 6714697  20.2378 356.8859  2.88935078368564
Source of the keplerian elements: AFSPC